User: anonymous   Login
Location: Unspecified
(0.0000°N, 0.0000°E)
Time: 14:39:26
(UTC+00:00)
Language:

EXPRESS MD2 - Orbit

View from above orbital plane
View from above orbital plane
View from above satellite
View from above satellite

Ground track
Ground track

The orbit data is extracted from the following two-line orbital elements,

1 38745U 12044B   18288.15440986  .00008172  25456-5  23315-3 0  9994
2 38745  49.8892 234.3835 2244513 198.4263 152.0398 10.95226032240140
Epoch (UTC): 15 October 2018 03:42:21
Eccentricity: 0.2244513
inclination: 49.8892°
perigee height: 264 km
apogee height: 4109 km
right ascension of ascending node: 234.3835°
argument of perigee: 198.4263°
revolutions per day: 10.95226032
mean anomaly at epoch: 152.0398°
orbit number at epoch: 24014

The dashed part of the orbit path shows where the satellite is in the earth's shadow,  

DLR